Lid_Strength_Index
-1 -1 -1 2 9 8 10 10 6 7 7 5 4 5 6 5 7 10 2 1 1 2 3 2 1 1 1 0 0 1 0 1 1 1 1 -1 -0 -0 -0 -1 -1 -1 -1 -0 -0 -0 0 0 0
-1 -0 1 4 9 11 11 7 8 6 6 5 6 6 6 7 5 5 3 2 2 3 3 1 1 1 0 1 1 1 1 1 0 -1 0 0 0 -0 -0 -2 -1 -1 -1 -0 -1 -0 1 1 2
-1 0 4 6 8 11 11 8 7 7 6 6 6 5 6 7 4 4 2 3 3 4 3 1 1 0 1 1 1 1 1 0 0 0 1 0 0 -0 -1 -1 -0 -0 -0 -1 -0 -0 1 1 1
1 2 3 8 10 9 8 6 5 6 6 6 5 7 6 5 4 4 3 4 4 4 1 1 1 1 1 1 1 1 0 1 1 1 1 1 1 0 -0 -0 -0 -0 -0 0 0 0 1 0 0
1 3 8 9 9 8 6 5 5 6 6 6 6 7 7 5 5 3 4 5 5 3 1 1 1 1 1 1 2 1 1 1 1 1 1 1 1 0 0 0 0 0 0 0 0 0 1 1 1
5 4 9 10 9 7 6 4 5 5 6 6 6 7 7 5 5 5 5 5 4 4 3 1 1 2 2 2 2 2 2 2 2 2 2 2 1 1 1 1 1 1 1 1 1 1 1 1 1
5 6 9 9 9 8 6 4 5 5 6 6 6 7 7 6 5 5 5 5 5 4 4 3 2 2 2 3 2 2 3 3 3 3 4 3 2 2 2 2 2 2 2 2 2 2 2 3 3
4 5 8 7 9 9 5 5 5 5 6 6 5 7 7 6 5 5 5 5 6 5 5 4 5 4 4 3 3 3 3 4 4 4 5 5 4 5 3 3 3 3 3 3 3 3 4 5 5
3 7 8 8 8 7 5 6 6 6 6 7 6 6 6 5 5 6 6 6 6 6 6 6 6 5 4 3 3 4 4 6 6 6 6 5 5 5 4 4 4 4 4 4 4 4 4 4 5
5 7 8 6 6 6 5 5 6 7 7 7 7 7 6 6 6 7 7 7 7 6 6 6 5 5 5 5 5 5 5 5 5 6 6 5 5 6 5 5 6 6 5 6 5 5 5 5 6
5 7 6 6 5 5 6 6 6 7 7 6 7 7 6 6 6 7 7 7 6 6 5 6 5 5 5 5 5 5 5 5 5 6 6 5 5 5 5 5 5 5 5 5 5 6 6 6 6
7 6 6 6 6 6 7 6 7 7 6 6 5 5 6 7 7 7 7 7 6 6 5 6 5 5 5 5 5 5 6 5 5 6 6 6 5 6 6 6 5 5 5 6 5 6 6 6 6
7 7 7 6 7 7 7 7 7 7 6 6 6 6 7 6 6 6 6 6 6 6 6 5 5 5 5 5 5 5 6 6 5 6 6 6 6 6 6 6 6 6 5 6 6 6 6 6 6
7 7 7 7 7 7 8 7 8 7 5 6 7 7 6 6 6 6 6 7 7 6 6 5 6 5 5 5 5 5 6 6 6 6 6 7 6 6 6 6 6 6 6 6 6 6 6 6 6
7 8 8 7 7 8 8 9 8 6 6 7 7 6 6 6 6 6 6 6 6 6 6 6 5 5 5 5 5 5 6 6 6 6 6 7 7 6 7 6 6 6 6 6 6 6 6 6 6
8 8 9 8 8 8 9 9 7 6 7 7 7 6 6 6 6 6 6 6 6 6 6 6 6 6 5 5 5 5 6 6 6 6 6 7 7 7 7 7 6 6 6 6 6 6 6 6 6
8 10 10 9 8 8 9 9 6 7 7 7 7 6 6 6 6 6 6 6 6 6 6 6 6 6 6 6 6 5 6 6 6 6 6 7 7 7 7 7 7 7 7 7 7 7 7 7 7
10 10 10 10 8 9 9 9 7 7 8 8 7 6 6 7 6 6 6 6 6 6 7 7 7 7 6 6 6 6 6 6 6 6 7 7 7 7 7 7 7 7 7 7 7 8 7 7 7
9 10 10 9 9 10 9 9 8 7 7 8 7 7 7 7 6 6 6 6 7 7 7 7 7 7 7 7 7 7 7 7 7 7 7 7 7 7 7 7 7 7 7 7 7 8 8 8 7
10 10 10 9 10 10 9 10 8 8 7 6 7 7 7 7 7 6 7 7 7 7 7 7 7 7 7 6 7 7 7 6 6 6 7 7 7 7 7 7 7 7 7 7 7 7 8 8 7
10 11 11 12 10 9 10 9 9 9 8 8 7 6 6 6 7 7 7 7 7 7 7 7 7 7 6 6 6 7 6 6 7 7 7 7 7 7 7 7 7 7 7 8 7 8 8 9 8
12 11 12 12 12 12 10 12 9 9 9 8 8 7 7 6 6 6 6 6 7 7 6 6 6 6 6 6 7 7 8 8 7 7 6 6 6 7 7 7 7 7 7 8 7 7 8 8 9
11 11 12 12 12 12 11 12 10 9 9 9 8 7 7 6 6 6 6 5 6 5 5 6 5 6 5 6 6 6 7 7 6 6 6 6 6 6 7 7 7 7 7 7 8 8 8 8 8
11 12 11 11 11 13 12 12 10 10 9 9 8 8 7 6 6 6 5 5 5 4 4 5 5 6 5 5 5 5 6 6 7 6 7 7 7 6 7 6 7 7 7 7 7 7 8 8 8
11 12 13 13 13 14 12 13 11 9 9 9 9 8 8 7 7 6 6 6 5 5 4 5 5 6 6 5 5 5 5 5 5 6 6 7 7 7 7 6 7 7 6 6 7 7 8 8 8
13 13 14 17 16 15 13 15 11 10 9 9 9 8 8 7 7 6 5 5 5 5 5 5 6 6 6 6 6 5 5 5 5 5 6 6 6 6 6 6 6 6 6 6 6 7 7 7 8
13 13 13 14 14 15 13 12 10 10 10 10 9 9 9 7 7 6 5 5 5 5 5 5 5 6 6 6 6 6 5 6 6 5 5 6 5 6 6 6 6 6 6 7 7 7 8 8 8
13 12 14 13 16 17 14 14 13 11 11 10 10 10 9 7 7 7 6 6 5 5 5 5 5 6 5 5 5 6 6 6 6 5 5 6 6 6 6 6 6 6 7 7 7 7 7 7 7
14 14 14 13 14 16 16 13 10 11 10 10 10 9 9 8 7 7 7 6 6 6 6 6 6 6 6 6 5 6 6 6 6 6 6 6 6 6 6 7 7 7 7 7 7 7 8 8 8
13 13 13 14 14 14 14 14 10 10 10 10 10 9 8 8 7 7 7 6 7 7 7 7 7 7 6 6 6 6 6 6 6 6 6 6 6 6 6 7 7 7 7 7 7 8 8 8 8